TimeCST,TemperatureF,Dew PointF,Humidity,Sea Level PressureIn,VisibilityMPH,Wind Direction,Wind SpeedMPH,Gust SpeedMPH,PrecipitationIn,Events,Conditions,WindDirDegrees,DateUTC
12:56 AM,34.9,31.1,86,30.04,10.0,SW,17.3,-,N/A,,Overcast,230,2013-01-06 06:56:00
2:42 AM,35.6,30.2,81,29.99,10.0,WSW,17.3,-,N/A,,Overcast,250,2013-01-06 08:42:00
2:56 AM,34.9,31.1,86,30.03,10.0,WSW,15.0,-,N/A,,Overcast,250,2013-01-06 08:56:00
3:37 AM,33.8,28.4,81,30.00,10.0,WNW,19.6,-,N/A,,Overcast,290,2013-01-06 09:37:00
3:56 AM,31.1,27.1,85,30.05,10.0,WNW,19.6,26.5,N/A,,Overcast,290,2013-01-06 09:56:00
4:04 AM,30.2,26.6,86,30.00,10.0,WNW,21.9,-,N/A,,Overcast,290,2013-01-06 10:04:00
4:56 AM,28.0,22.1,78,30.07,10.0,West,16.1,24.2,N/A,,Overcast,280,2013-01-06 10:56:00
5:56 AM,27.1,22.1,81,30.09,10.0,WNW,16.1,-,N/A,,Overcast,290,2013-01-06 11:56:00
6:56 AM,27.1,22.1,81,30.12,7.0,WNW,20.7,-,N/A,,Overcast,290,2013-01-06 12:56:00
7:56 AM,25.2,20.1,81,30.14,7.0,West,16.1,-,N/A,,Overcast,280,2013-01-06 13:56:00
8:56 AM,23.0,19.0,85,30.17,6.0,West,17.3,21.9,N/A,,Overcast,280,2013-01-06 14:56:00
9:56 AM,23.0,18.1,82,30.21,5.0,WNW,17.3,-,N/A,,Haze,290,2013-01-06 15:56:00
10:23 AM,21.2,17.6,86,30.17,6.0,WNW,17.3,-,N/A,,Haze,290,2013-01-06 16:23:00
10:56 AM,24.1,18.1,78,30.22,7.0,WNW,20.7,26.5,N/A,,Clear,290,2013-01-06 16:56:00
11:56 AM,25.2,20.1,81,30.23,8.0,West,19.6,-,N/A,,Clear,280,2013-01-06 17:56:00
12:56 PM,27.1,21.0,78,30.24,8.0,WNW,18.4,-,N/A,,Partly Cloudy,300,2013-01-06 18:56:00
1:56 PM,29.1,22.1,75,30.25,10.0,WNW,16.1,-,N/A,,Scattered Clouds,300,2013-01-06 19:56:00
3:56 PM,28.0,21.0,75,30.32,10.0,West,11.5,-,N/A,,Clear,280,2013-01-06 21:56:00
4:56 PM,26.1,20.1,78,30.34,10.0,West,5.8,-,N/A,,Clear,260,2013-01-06 22:56:00
6:56 PM,22.1,17.1,81,30.40,10.0,WNW,8.1,-,N/A,,Clear,290,2013-01-07 00:56:00
7:56 PM,23.0,17.1,78,30.40,10.0,West,6.9,-,N/A,,Clear,270,2013-01-07 01:56:00
8:56 PM,17.1,14.0,88,30.42,10.0,SW,4.6,-,N/A,,Clear,220,2013-01-07 02:56:00
9:56 PM,16.2,14.0,91,30.42,9.0,SW,3.5,-,N/A,,Clear,220,2013-01-07 03:56:00
10:56 PM,17.1,15.1,92,30.43,7.0,SW,3.5,-,N/A,,Clear,220,2013-01-07 04:56:00
11:56 PM,14.0,13.1,96,30.43,8.0,SSW,3.5,-,N/A,,Clear,210,2013-01-07 05:56:00